Rogers City, MI

6:42 AM EDT on May 24, 2017 (GMT -0400)
Presque Isle County

Weather History for KPZQ - November, 2012

Change the Weather History Date:

Tuesday, November 20, 2012

  Actual Average (KAPN) Record (KAPN)
Temperature  
Mean Temperature 42 °F -  
Max Temperature 52 °F 40 °F 65 °F (1953)
Min Temperature 32 °F 27 °F 8 °F (1951)
Degree Days  
Heating Degree Days 23    
Moisture  
Dew Point 35 °F    
Average Humidity 73    
Maximum Humidity 93    
Minimum Humidity 52    
Precipitation  
Precipitation 0.00 in - - ()
Sea Level Pressure  
Sea Level Pressure 30.12 in    
Wind  
Wind Speed 3 mph (SSW)    
Max Wind Speed 6 mph    
Max Gust Speed -    
Visibility 8 miles    
Events      
Averages and records for this station are not official NWS values.
T = Trace of Precipitation, MM = Missing Value Source: NWS Daily Summary

Daily Weather History Graph

Daily Weather History Graph

Search for Another Location

Airport or City:

Trip Planner

Search our weather history database for the weather conditions in past years. The results will help you decide how hot, cold, wet, or windy it might be!

Date:

Astronomy

Nov. 20, 2012 Rise Set
Actual Time 7:41 AM EST 5:00 PM EST
Civil Twilight 7:08 AM EST 5:32 PM EST
Nautical Twilight 6:32 AM EST 6:08 PM EST
Astronomical Twilight 5:57 AM EST 6:44 PM EST
Moon 1:05 PM EST (11/20) No Moon Set
Length of Visible Light 10h 23m
Length of Day
9h 18m
Waxing Crescent, 51% of the Moon is Illuminated
Nov 20
Waxing Crescent
Nov 28
Full
Dec 6
Last Quarter
Dec 13
New
Dec 20
First Quarter

Hourly Weather History & Observations

Time (EST) Temp. Windchill Dew Point Humidity Pressure Visibility Wind Dir Wind Speed Gust Speed Precip Events Conditions
12:15 AM 43.9 °F 41.3 °F 32.5 °F 64% 30.15 in 10.0 mi South 4.6 mph - N/A   Overcast
12:34 AM 43.9 °F 40.5 °F 32.5 °F 64% 30.15 in 10.0 mi South 5.8 mph - N/A   Overcast
12:54 AM 43.9 °F 40.5 °F 32.7 °F 65% 30.14 in 10.0 mi SSW 5.8 mph - N/A   Overcast
1:15 AM 44.2 °F 41.8 °F 32.5 °F 63% 30.14 in 10.0 mi South 4.6 mph - N/A   Overcast
1:34 AM 44.1 °F 42.5 °F 32.9 °F 65% 30.13 in 10.0 mi South 3.5 mph - N/A   Overcast
1:54 AM 44.4 °F 42.0 °F 32.5 °F 63% 30.13 in 10.0 mi SW 4.6 mph - N/A   Overcast
2:15 AM 43.9 °F - 32.5 °F 64% 30.13 in 10.0 mi Calm Calm - N/A   Mostly Cloudy
2:34 AM 43.7 °F 40.3 °F 32.2 °F 64% 30.13 in 10.0 mi SSW 5.8 mph - N/A   Mostly Cloudy
2:55 AM 44.4 °F 41.2 °F 32.2 °F 62% 30.12 in 10.0 mi SSW 5.8 mph - N/A   Overcast
3:14 AM 44.8 °F 42.4 °F 32.2 °F 61% 30.12 in 10.0 mi SSW 4.6 mph - N/A   Overcast
3:34 AM 43.9 °F - 32.4 °F 64% 30.12 in 10.0 mi Calm Calm - N/A   Overcast
3:55 AM 43.2 °F 41.5 °F 32.9 °F 67% 30.12 in 10.0 mi ESE 3.5 mph - N/A   Overcast
4:14 AM 42.3 °F 40.5 °F 33.3 °F 70% 30.12 in 10.0 mi South 3.5 mph - N/A   Overcast
4:34 AM 42.8 °F 41.1 °F 33.3 °F 69% 30.12 in 10.0 mi South 3.5 mph - N/A   Overcast
4:55 AM 42.6 °F - 33.6 °F 70% 30.12 in 10.0 mi Calm Calm - N/A   Overcast
5:14 AM 42.3 °F - 33.3 °F 70% 30.11 in 10.0 mi Calm Calm - N/A   Overcast
5:34 AM 41.9 °F 39.0 °F 33.8 °F 73% 30.11 in 10.0 mi South 4.6 mph - N/A   Overcast
5:54 AM 42.8 °F - 33.3 °F 69% 30.11 in 10.0 mi Calm Calm - N/A   Overcast
6:14 AM 42.4 °F 39.6 °F 33.8 °F 71% 30.11 in 10.0 mi South 4.6 mph - N/A   Overcast
6:35 AM 42.4 °F 38.8 °F 33.8 °F 71% 30.11 in 10.0 mi SSE 5.8 mph - N/A   Overcast
7:14 AM 42.3 °F 39.4 °F 33.8 °F 72% 30.12 in 10.0 mi SSW 4.6 mph - N/A   Overcast
7:35 AM 42.8 °F 40.1 °F 33.6 °F 70% 30.12 in 10.0 mi SSW 4.6 mph - N/A   Overcast
7:54 AM 43.2 °F 40.5 °F 33.8 °F 70% 30.12 in 10.0 mi SSW 4.6 mph - N/A   Overcast
8:15 AM 43.3 °F 40.7 °F 34.0 °F 70% 30.12 in 10.0 mi South 4.6 mph - N/A   Overcast
8:34 AM 43.9 °F 41.3 °F 34.2 °F 69% 30.12 in 10.0 mi SW 4.6 mph - N/A   Overcast
8:54 AM 44.6 °F - 34.3 °F 67% 30.12 in 10.0 mi Calm Calm - N/A   Overcast
9:15 AM 45.0 °F - 34.3 °F 66% 30.12 in 10.0 mi Calm Calm - N/A   Overcast
9:34 AM 45.9 °F - 34.3 °F 64% 30.12 in 10.0 mi Calm Calm - N/A   Overcast
9:54 AM 47.7 °F - 34.9 °F 61% 30.12 in 10.0 mi SW 3.5 mph - N/A   Overcast
10:15 AM 49.8 °F - 35.1 °F 57% 30.12 in 10.0 mi SW 3.5 mph - N/A   Overcast
10:34 AM 50.5 °F - 34.9 °F 55% 30.12 in 10.0 mi Calm Calm - N/A   Overcast
10:54 AM 50.9 °F - 35.4 °F 55% 30.11 in 10.0 mi Calm Calm - N/A   Overcast
11:14 AM 52.9 °F - 35.8 °F 52% 30.11 in 10.0 mi Calm Calm - N/A   Overcast
11:34 AM 52.2 °F - 35.1 °F 52% 30.10 in 10.0 mi Calm Calm - N/A   Overcast
11:55 AM 52.3 °F - 35.4 °F 53% 30.10 in 10.0 mi Calm Calm - N/A   Overcast
12:14 PM 51.1 °F - 38.1 °F 61% 30.09 in 10.0 mi Calm Calm - N/A   Overcast
12:34 PM 51.6 °F - 38.3 °F 60% 30.09 in 10.0 mi Calm Calm - N/A   Overcast
12:55 PM 49.3 °F - 39.2 °F 68% 30.09 in 10.0 mi NNE 3.5 mph - N/A   Overcast
1:14 PM 47.8 °F - 38.1 °F 69% 30.09 in 10.0 mi NE 3.5 mph - N/A   Overcast
1:34 PM 47.3 °F - 39.2 °F 73% 30.10 in 10.0 mi Calm Calm - N/A   Overcast
1:54 PM 48.2 °F - 39.2 °F 71% 30.10 in 10.0 mi Calm Calm - N/A   Overcast
2:14 PM 47.8 °F - 39.0 °F 71% 30.09 in 10.0 mi Calm Calm - N/A   Mostly Cloudy
2:35 PM 48.4 °F - 39.2 °F 71% 30.10 in 10.0 mi Calm Calm - N/A   Scattered Clouds
2:54 PM 48.6 °F - 39.2 °F 70% 30.10 in 10.0 mi Calm Calm - N/A   Mostly Cloudy
3:14 PM 47.8 °F - 39.6 °F 73% 30.10 in 10.0 mi Calm Calm - N/A   Overcast
3:35 PM 47.5 °F - 39.9 °F 75% 30.11 in 10.0 mi North 3.5 mph - N/A   Overcast
3:54 PM 47.3 °F - 40.1 °F 76% 30.11 in 10.0 mi Calm Calm - N/A   Overcast
4:14 PM 47.3 °F - 40.3 °F 77% 30.11 in 7.0 mi Calm Calm - N/A   Mostly Cloudy
4:35 PM 46.6 °F - 40.1 °F 78% 30.10 in 10.0 mi Calm Calm - N/A   Scattered Clouds
4:54 PM 44.8 °F - 39.2 °F 81% 30.11 in 7.0 mi Calm Calm - N/A   Scattered Clouds
5:14 PM 43.2 °F - 38.1 °F 82% 30.11 in 7.0 mi Calm Calm - N/A   Mostly Cloudy
5:34 PM 40.8 °F - 36.9 °F 86% 30.12 in 7.0 mi Calm Calm - N/A   Mostly Cloudy
5:54 PM 39.7 °F - 36.3 °F 88% 30.13 in 5.0 mi Calm Calm - N/A   Scattered Clouds
6:15 PM 37.4 °F - 33.6 °F 86% 30.13 in 5.0 mi Calm Calm - N/A   Clear
6:34 PM 35.8 °F - 33.1 °F 90% 30.13 in 2.5 mi Calm Calm - N/A   Clear
6:54 PM 37.0 °F - 34.2 °F 89% 30.13 in 4.0 mi Calm Calm - N/A   Clear
7:14 PM 36.3 °F 33.7 °F 33.6 °F 90% 30.13 in 5.0 mi WSW 3.5 mph - N/A   Clear
7:34 PM 34.9 °F 32.0 °F 32.2 °F 90% 30.14 in 5.0 mi WSW 3.5 mph - N/A   Clear
7:55 PM 34.9 °F - 32.2 °F 90% 30.14 in 3.0 mi Calm Calm - N/A   Clear
8:14 PM 33.4 °F - 31.5 °F 92% 30.15 in 2.5 mi Calm Calm - N/A   Clear
8:34 PM 34.5 °F 31.6 °F 32.0 °F 90% 30.15 in 3.0 mi WSW 3.5 mph - N/A   Clear
8:55 PM 32.7 °F - 30.9 °F 93% 30.15 in 5.0 mi Calm Calm - N/A   Clear
9:14 PM 34.9 °F - 32.5 °F 91% 30.15 in 5.0 mi Calm Calm - N/A   Mostly Cloudy
9:35 PM 39.4 °F - 36.9 °F 91% 30.15 in 5.0 mi Calm Calm - N/A   Overcast
9:54 PM 38.8 °F - 36.0 °F 89% 30.15 in 4.0 mi Calm Calm - N/A   Scattered Clouds
10:14 PM 37.2 °F - 34.5 °F 90% 30.15 in 1.8 mi Calm Calm - N/A   Mostly Cloudy
10:35 PM 35.4 °F - 32.9 °F 91% 30.15 in 0.8 mi Calm Calm - N/A   Overcast
10:54 PM 34.3 °F - 32.0 °F 91% 30.15 in 0.8 mi Calm Calm - N/A   Mostly Cloudy
11:15 PM 37.4 °F 34.9 °F 34.9 °F 91% 30.16 in 2.5 mi SW 3.5 mph - N/A   Overcast
11:34 PM 40.1 °F 38.0 °F 37.6 °F 91% 30.16 in 1.8 mi SW 3.5 mph - N/A   Overcast
11:54 PM 41.0 °F - 38.7 °F 91% 30.16 in 2.0 mi Calm Calm - N/A   Overcast